Regional Weather Roundup
Issued by NWS

Home | Current Version | Previous Version | Text Only | Print | Product List | Glossary On
Versions: 1 2 3 4 5 6 7 8 9 10 11 12 13 14 15 16 17 18 19 20 21 22 23 24 25 26 27 28 29 30 31 32 33 34 35 36 37 38 39 40 41 42 43 44 45 46 47 48 49 50
000
ASUS44 KOUN 252210
RWROK

WEATHER ROUNDUP FOR OKLAHOMA
NATIONAL WEATHER SERVICE NORMAN OK
500 PM CDT MON JUL 25 2016

NOTE: "FAIR" INDICATES FEW OR NO CLOUDS BELOW 12,000 FEET WITH NO
      SIGNIFICANT WEATHER AND/OR OBSTRUCTIONS TO VISIBILITY.

OKZ001>007-009>012-014-015-017-252300-
NORTHWEST OKLAHOMA AND THE PANHANDLE

CITY           SKY/WX    TMP DP  RH WIND       PRES   REMARKS
GAGE           SUNNY     92  67  43 VRB5      30.01F HX  95
GUYMON         SUNNY     88  66  48 NE12      30.06F HX  90
ENID/WOODRING  PTSUNNY   95  68  41 CALM      29.93F HX  99
$$

OKZ016-021>023-033>039-044-045-252300-
SOUTHWEST OKLAHOMA

CITY           SKY/WX    TMP DP  RH WIND       PRES   REMARKS
LAWTON/REGL    CLOUDY    94  71  47 NW8       29.91F HX 101
LAWTON/FT SILL MOSUNNY   89  73  58 NW9       29.91F HX  97
FREDERICK      MOSUNNY   96  71  44 NE18      29.89F HX 103
CLINTON        MOSUNNY   98  66  34 N6        29.98F HX 101
HOBART         CLOUDY    84  74  71 S10       29.97R THUNDER HX  91
ALTUS AFB      TSTM      93  68  43 VRB6      29.93S HX  97
$$

OKZ018>020-024>031-252300-
CENTRAL OKLAHOMA

CITY           SKY/WX    TMP DP  RH WIND       PRES   REMARKS
OKLAHOMA CITY  PTSUNNY   93  70  46 CALM      29.93F HX  99
OKC/WILEY POST MOSUNNY   96  70  42 CALM      29.93F HX 102
OKC/TINKER AFB SUNNY     94  72  48 VRB2      29.93F HX 102
GUTHRIE        MOSUNNY   96  69  41 CALM      29.92F THUNDER HX 102
$$

OKZ008-013-054>072-252300-
NORTHEAST OKLAHOMA

CITY           SKY/WX    TMP DP  RH WIND       PRES   REMARKS
TULSA          CLOUDY    90  73  57 SE9       29.91F HX  98
TULSA/JONES    CLOUDY    91  74  57 S8        29.92F HX 100
PONCA CITY     CLOUDY    86  71  60 E7        29.95F HX  91
BARTLESVILLE   CLOUDY    87  72  60 VRB3      29.95F HX  93
MUSKOGEE       PTSUNNY   90  75  61 SE12      29.93F HX 100
$$

OKZ032-040>043-046>053-073>077-252300-
SOUTH CENTRAL/SOUTHEAST OKLAHOMA

CITY           SKY/WX    TMP DP  RH WIND       PRES   REMARKS
ARDMORE/DWNTWN MOSUNNY   91  68  46 NE10      29.91S HX  95
MCALESTER      MOSUNNY   97  75  49 VRB5      29.92F HX 109
$$





USA.gov is the U.S. government's official web portal to all federal, state and local government web resources and services.